Weather in Mountain View

United States     37°23′09″N   122°05′02″W
temp.,
°C
wind,
m/s
gust,
m/s
humid.,
%
clouds,
%
prec.,
mm/h
press.,
hPa
HPBL,
m
20 january, wed
wed2001:00+11nne11390 0.0 101822
04:00+10ne11370 0.0 101834
07:00+10nne11430 0.0 101924
10:00+13nne11320 0.0 1020219
13:00+18nnw12220 0.0 1018504
16:00+19nw22220 0.0 1018387
19:00+14nnw11280 0.0 101853
22:00+13se11300 0.0 101922
21 january, thu
thu2101:00+11ene01330 0.0 101922
04:00+10ese11344 0.0 101922
07:00+10ese113458 0.0 101923
10:00+13s012736 0.0 1020223
13:00+17nw112070 0.0 1018402
16:00+16nw332980 0.0 1016407
19:00+13nw124995 0.0 1016228
22:00+11wnw015897 0.0 1017106
22 january, fri
fri2201:00+10se116131 0.0 101560
04:00+10se116123 0.0 101592
07:00+10sw126493 0.1 1015208
10:00+12w365875 0.1 10161102
13:00+13wnw585271 0.3 10151499
16:00+12w585350 0.4 10141216
19:00+10w35660 0.0 1014764
22:00+10w126715 0.0 1014348
23 january, sat
sat2301:00+10wsw126592 0.0 1014241
04:00+8nne117150 0.0 101463
07:00+7n12750 0.0 1015122
10:00+10nnw22570 0.0 1016530
13:00+13nw35420 0.0 10151316
16:00+13nw45430 0.0 10141005
19:00+10nw36610 0.0 1016412
22:00+9sw01690 0.0 101769
24 january, sun
sun2401:00+8se11710 0.0 101654
04:00+7se12730 0.0 101669
07:00+7s237336 0.0 1016124
10:00+9ssw247067 0.0 1017763
13:00+11wsw4662100 0.1 10151222
16:00+9w1279100 1.7 1013453
19:00+8s3685100 5.3 1012514
22:00+8wnw61158100 7.0 10121347